This is the latest recevied weather packets stored in our database for station/object I2HLY-3. If no packets are shown the sender has not sent any weather packets the latest 10 day(s).
| Time | Temp. | Humidity | Pressure | Rain* | Wind** | Luminosity | Snow |
|---|---|---|---|---|---|---|---|
| 1777636042 | 18.33° C | 40% | 1025.7 hPa | 0 mm | - | - | - |
| 1777635146 | 18.33° C | 40% | 1025.9 hPa | 0 mm | - | - | - |
| 1777634246 | 18.33° C | 39% | 1026.1 hPa | 0 mm | - | - | - |
| 1777633346 | 18.33° C | 39% | 1026.2 hPa | 0 mm | - | - | - |
| 1777632450 | 17.78° C | 39% | 1026.4 hPa | 0 mm | - | - | - |
| 1777631550 | 17.78° C | 38% | 1026.5 hPa | 0 mm | - | - | - |
| 1777630650 | 17.78° C | 39% | 1026.7 hPa | 0 mm | - | - | - |
| 1777629750 | 17.22° C | 38% | 1026.7 hPa | 0 mm | - | - | - |
| 1777628852 | 17.22° C | 40% | 1026.7 hPa | 0 mm | - | - | - |
| 1777627952 | 16.67° C | 40% | 1026.8 hPa | 0 mm | - | - | - |
| 1777627052 | 16.67° C | 41% | 1026.8 hPa | 0 mm | - | - | - |
| 1777626135 | 16.67° C | 43% | 1026.9 hPa | 0 mm | - | - | - |
| 1777625255 | 16.11° C | 42% | 1026.9 hPa | 0 mm | - | - | - |
| 1777624355 | 15.56° C | 43% | 1026.8 hPa | 0 mm | - | - | - |
| 1777623439 | 15.56° C | 43% | 1026.6 hPa | 0 mm | - | - | - |
| 1777622539 | 15.56° C | 45% | 1026.7 hPa | 0 mm | - | - | - |
| 1777621637 | 15.56° C | 44% | 1026.6 hPa | 0 mm | - | - | - |
| 1777620741 | 15° C | 42% | 1026.5 hPa | 0 mm | - | - | - |
| 1777619841 | 15° C | 40% | 1026.4 hPa | 1.02 mm | - | - | - |
| 1777618940 | 14.44° C | 44% | 1026.3 hPa | 1.02 mm | - | - | - |
| 1777618044 | 13.89° C | 47% | 1026.3 hPa | 1.02 mm | - | - | - |
| 1777617144 | 13.33° C | 52% | 1026.2 hPa | 1.02 mm | - | - | - |
| 1777616243 | 12.78° C | 56% | 1025.9 hPa | 0 mm | - | - | - |
| 1777615342 | 12.22° C | 58% | 1025.8 hPa | 0 mm | - | - | - |
| 1777614446 | 11.67° C | 62% | 1025.8 hPa | 0 mm | - | - | - |
* Rain latest hour (hover to see other rain measurements)
** Current wind speed in m/s (hover to see current wind gust speed)